Hourly Data Report for October 05, 2016

TORONTO CITY
ONTARIO

43°40'00.000" N
79°24'00.000" W
112.50 m
6158355
71508
XTO

Download Data

Hourly Data (October 2016)
Hourly Data Report for October 5, 2016
TIME
LST
Temp Definition
°C
Dew Point Definition
°C
Rel Hum Definition
%
Precip. Amount Definition
mm

Wind Dir Definition
10's deg

Wind Spd Definition
km/h
Visibility Definition
km
Stn Press Definition
kPa
Hmdx Definition


Wind Chill Definition


Weather Definition


00:00 16.8 14.1 84 0.0 LegendMM LegendMM   101.06     LegendNANA
01:00 16.5 14.2 86 0.0 LegendMM LegendMM   101.08     LegendNANA
02:00 16.2 13.4 83 0.0 LegendMM LegendMM   101.05     LegendNANA
03:00 16.1 13.0 81 0.0 LegendMM LegendMM   101.01     LegendNANA
04:00 15.0 12.9 87 0.0 LegendMM LegendMM   101.06     LegendNANA
05:00 15.8 12.9 83 0.0 LegendMM LegendMM   101.09     LegendNANA
06:00 15.6 12.9 84 0.0 LegendMM LegendMM   101.13     LegendNANA
07:00 15.9 12.8 82 0.0 LegendMM LegendMM   101.16     LegendNANA
08:00 17.0 12.9 76 0.0 LegendMM LegendMM   101.18     LegendNANA
09:00 17.8 13.0 73 0.0 LegendMM LegendMM   101.17     LegendNANA
10:00 18.0 12.4 70 0.0 LegendMM LegendMM   101.15     LegendNANA
11:00 18.3 12.5 69 0.0 LegendMM LegendMM   101.10     LegendNANA
12:00 18.7 12.8 69 0.0 LegendMM LegendMM   101.06     LegendNANA
13:00 18.7 12.4 67 0.0 LegendMM LegendMM   100.99     LegendNANA
14:00 19.2 12.2 64 0.0 LegendMM LegendMM   100.94     LegendNANA
15:00 18.5 12.4 67 0.0 LegendMM LegendMM   100.90     LegendNANA
16:00 18.6 12.9 70 0.0 LegendMM LegendMM   100.86     LegendNANA
17:00 18.0 13.5 75 0.0 LegendMM LegendMM   100.85     LegendNANA
18:00 17.5 13.5 78 0.0 LegendMM LegendMM   100.82     LegendNANA
19:00 17.4 13.6 78 0.0 LegendMM LegendMM   100.80     LegendNANA
20:00 17.3 14.3 83 0.0 LegendMM LegendMM   100.79     LegendNANA
21:00 17.5 14.8 84 0.0 LegendMM LegendMM   100.79     LegendNANA
22:00 17.8 13.8 77 0.0 LegendMM LegendMM   100.82     LegendNANA
23:00 17.8 13.9 78 0.0 LegendMM LegendMM   100.85     LegendNANA

Notes on Data Quality.

Legend

  • E = Estimated
  • M = Missing
  • NA = Not Available*
  • [empty] = Indicates an unobserved value
Date modified: